CZ-6A DEB, 55552

Orbit data source: Space-Track

CZ-6A DEB, 55552 is space debris in SSO originally from a launch on Fri, 11 Nov 2022 UTC launched from the Taiyaun Space Center, China (TSC). Debris objects in space refer to the collection of defunct objects orbiting the Earth. Examples of debris include non-operational satellites, rocket bodies, and fragments generated from explosions, collisions, or faulty payload assembly.

Loading next visibility...
Identifier
55552, 2022-151ZA
Orbit
SSO
Country
Flag of CNCN / PRC
Related business
Manufacturer
SAST
Mission
Spacecraft
Bus & Motor
Unknown
Mass
Unknown
Launch date (UTC)
2022-11-11 (3 years ago)
Launch vehicle
Unknown
Launch site
Taiyaun Space Center, China (TSC)
Object type
Payload
Rocket body
Debris
Shape & HBR
Unknown shape, 0.1 m
Radar Cross Section
Small (<0.1 m²)

Expand to show TLE details & history
Last TLE update: 18 hours ago

TLE from 18 hours ago
0 CZ-6A DEB
1 55552U 22151ZA  25353.57141506  .00006857  00000-0  12940-2 0  9994
2 55552  98.6334  38.6720 0076161 141.6269 219.0384 14.62938468157228
Epoch: 2025-12-19T13:42Z
TLE epoch observation values (Epoch: 2025-12-19T13:42:50.261Z)
Latitude
0.00003°
Longitude
104.55192°
Altitude
728.623 km
Speed
7.469 km/s
True Right ascension
02h 34m 41s
True Declination
0° 00' 00"
Sunlit
Object was in full shadow at epoch
Visualization orbit readout
Latitude
Unknown
Longitude
Unknown
Altitude
Unknown
Speed
Unknown
Apparent Right ascension
Unknown
Apparent Declination
Unknown
Sunlit
N/A
Visualization observer readout
Local Sidereal Time
06:43:12
Azimuth
Unknown
Elevation
Unknown
Doppler factor
Unknown
Orbital elements
Apogee altitude
734.561 km
Perigee altitude
627.038 km
Semi-major axis
7,058.936 km
Eccentricity
0.00762
Inclination
98.6334°
RAAN
38.672°
Arg. of periapsis
141.6269°
True anomaly
218.49276°
Mean anomaly
219.0384°
Eccentric anomaly
218.76518°
Mean motion
3.65961 °/min
Orbital period
98.37 mins
BSTAR
0.001294
Loading maneuver chart data...
Computing Atmospheric mass density...
Loading historical data...
Loading historical data...
Loading historical data...
Loading historical data...
Loading historical data...
Loading historical data...
Loading historical data...

Documentation

Showing up to 5 results
|